User: anonymous   Login
Location: Crescent
(42.8242°N, 73.7329°W)
Time: 19:33:54
(UTC+00:00)
Language:

Transit 2A - Orbit

View from above orbital plane
View from above orbital plane
View from above satellite
View from above satellite

Ground track
Ground track

The orbit data is extracted from the following two-line orbital elements,

1    45U 60007A   25312.77454963  .00000905  00000-0  24250-3 0  9990
2    45  66.6928 223.1491 0254004 318.8120  39.4052 14.35732508348408
Epoch (UTC): 08 November 2025 18:35:21
Eccentricity: 0.0254004
inclination: 66.6928°
perigee height: 591 km
apogee height: 954 km
right ascension of ascending node: 223.1491°
argument of perigee: 318.8120°
revolutions per day: 14.35732508
mean anomaly at epoch: 39.4052°
orbit number at epoch: 34840

The dashed part of the orbit path shows where the satellite is in the earth's shadow,  

DLR